星链-4799 (STARLINK-4799 )

导读

STARLINK-4799是美国SpaceX公司星链(Starlink)星座的卫星,于2022年9月19日发射升空,属于星链低轨互联网星座的组成部分。它运行在近地轨道,为全球偏远、欠发达地区提供高速低延迟宽带互联网接入,支撑远程办公、视频通话、在线娱乐等应用,是SpaceX大规模卫星互联网组网的重要单元,助力星座全球覆盖能力不断完善。

Basic Information
目录编号:
53860
目录名称:
STARLINK-4799
国际标识:
2022-114AU
轨道中心:
EARTH
卫星名称:
星链-4799
卫星全名:
星链-4799 (STARLINK-4799 )
卫星状态:
在轨 (已飞行1365 天)
发射日期:
2022-09-19 UTC
国别 :
美国 (US)
星等 :
--
Orbit Information
数据来源 国际轨道数据 AOE轨道数据
星历时间 2026-06-15T03:41:18+0800
9小时前
查看轨道信息
2026-06-15T07:00:00+0800
6小时前
查看轨道信息
半长轴 6917.904km 6917.858km
偏心率 0.0001056 0.0001138
轨道倾角 53.159° 53.158°
近地点辐角 79.998° 95.939°
升交点赤经 208.117° 207.494°
平近点角 280.113° 294.135°
近地点 539.036km 538.933km
远地点 540.498km 540.509km
周期 95.438分钟 95.437分钟
每日圈数 15.088323 15.088475
Detailed Information
固有亮度:
5
最大亮度:
2.5
卫星平台:
Starlink v1.5
覆盖范围:
全球
运营商:
太空探索技术公司
运营商所在国:
美国
制造商(研发单位):
太空探索技术公司
制造商所在国:
美国
使用方式:
暂无
Satellite Introduction
星链(Starlink)计划是由太空探索技术公司(SpaceX)提出的一个巨型低轨卫星互联网星座项目,计划在2019年至2024年间在太空搭建由约1.2万颗卫星组成的“星链”网络,其中1584颗将部署在地球上空550千米处的近地轨道,并从2020年开始工作。该卫星仍在工作。
2D Orbit Map
3D Orbit Map
Orbit Altitude Analysis Chart
Orbit Inclination Analysis Chart
Orbit Comprehensive Analysis Chart
View Comprehensive Chart